| time (UTC) | temp F | wind direction | speed knots | gust knots | rain 1hr in | rain 24hr in | rain mn in | humidity % | barometer mb |
| 20260904213012 | 52 | 254 | 0.0 | 3.5 | 0.00 | 0.17 | 0.17 | 88 | 997.2 |
| 20260904211516 | 52 | 253 | 0.0 | 3.5 | 0.00 | 0.17 | 0.17 | 87 | 997.2 |
| 20260904210021 | 53 | 253 | 0.9 | 3.5 | 0.00 | 0.17 | 0.17 | 86 | 997.2 |
| 20260904204517 | 53 | 252 | 2.6 | 7.0 | 0.00 | 0.17 | 0.17 | 86 | 997.4 |
| 20260904203009 | 53 | 258 | 2.6 | 7.0 | 0.00 | 0.17 | 0.17 | 87 | 997.3 |
| 20260904201509 | 54 | 289 | 0.0 | 4.3 | 0.00 | 0.17 | 0.17 | 88 | 997.2 |
| 20260904200009 | 54 | 289 | 0.0 | 4.3 | 0.02 | 0.18 | 0.17 | 87 | 997.1 |
| 20260904194509 | 54 | 294 | 1.7 | 4.3 | 0.02 | 0.18 | 0.17 | 88 | 997.0 |
| 20260904193010 | 55 | 294 | 0.9 | 3.5 | 0.04 | 0.18 | 0.17 | 87 | 997.0 |
| 20260904191511 | 55 | 309 | 1.7 | 7.0 | 0.05 | 0.18 | 0.17 | 88 | 997.1 |
| 20260904190011 | 55 | 279 | 3.5 | 11.3 | 0.06 | 0.24 | 0.16 | 88 | 997.2 |
| 20260904184509 | 55 | 294 | 3.5 | 11.3 | 0.06 | 0.24 | 0.15 | 89 | 997.0 |
| 20260904183009 | 55 | 289 | 4.3 | 8.7 | 0.06 | 0.22 | 0.13 | 90 | 996.8 |
| 20260904181511 | 55 | 237 | 2.6 | 8.7 | 0.05 | 0.21 | 0.13 | 91 | 996.6 |
| 20260904180009 | 55 | 259 | 7.8 | 10.4 | 0.02 | 0.24 | 0.10 | 93 | 996.6 |
| 20260904174511 | 55 | 165 | 0.0 | 2.6 | 0.01 | 0.22 | 0.09 | 94 | 996.4 |
| 20260904173010 | 55 | 165 | 0.0 | 0.0 | 0.01 | 0.21 | 0.08 | 94 | 996.4 |
| 20260904171518 | 55 | 165 | 0.9 | 7.0 | 0.02 | 0.21 | 0.08 | 93 | 996.4 |
| 20260904170009 | 55 | 167 | 1.7 | 4.3 | 0.03 | 0.24 | 0.08 | 92 | 996.3 |
| 20260904164509 | 55 | 167 | 3.5 | 4.3 | 0.06 | 0.24 | 0.08 | 92 | 996.3 |
| 20260904163009 | 56 | 165 | 3.5 | 7.0 | 0.07 | 0.23 | 0.07 | 91 | 996.3 |
| 20260904161509 | 56 | 174 | 4.3 | 7.0 | 0.06 | 0.22 | 0.06 | 90 | 996.2 |
| 20260904160011 | 57 | 165 | 5.2 | 7.0 | 0.05 | 0.24 | 0.05 | 87 | 996.2 |
| 20260904154508 | 57 | 227 | 1.7 | 7.8 | 0.02 | 0.22 | 0.02 | 83 | 996.4 |
| 20260904153018 | 59 | 188 | 3.5 | 8.7 | 0.00 | 0.20 | 0.00 | 81 | 996.4 |
| 20260904151511 | 59 | 184 | 4.3 | 11.3 | 0.00 | 0.20 | 0.00 | 78 | 996.4 |
| 20260904150025 | 60 | 175 | 6.1 | 13.9 | 0.00 | 0.24 | 0.00 | 74 | 996.4 |
| 20260904144511 | 61 | 205 | 5.2 | 7.8 | 0.00 | 0.24 | 0.00 | 68 | 996.2 |
| 20260904143011 | 62 | 223 | 2.6 | 8.7 | 0.00 | 0.24 | 0.00 | 67 | 996.3 |
| 20260904141509 | 62 | 204 | 6.1 | 10.4 | 0.00 | 0.24 | 0.00 | 65 | 996.4 |
| 20260904140009 | 62 | 237 | 4.3 | 8.7 | 0.00 | 0.24 | 0.00 | 65 | 996.4 |
| 20260904134529 | 63 | 252 | 6.1 | 9.6 | 0.00 | 0.24 | 0.00 | 61 | 996.5 |
| 20260904133009 | 63 | 207 | 3.5 | 9.6 | 0.00 | 0.24 | 0.00 | 62 | 996.6 |
| 20260904131513 | 62 | 234 | 4.3 | 9.6 | 0.00 | 0.24 | 0.00 | 63 | 996.7 |
| 20260904130017 | 63 | 254 | 6.1 | 11.3 | 0.00 | 0.24 | 0.00 | 62 | 996.9 |
| 20260904123010 | 63 | 261 | 5.2 | 9.6 | 0.00 | 0.24 | 0.00 | 61 | 997.4 |
| 20260904121510 | 63 | 257 | 5.2 | 11.3 | 0.00 | 0.24 | 0.00 | 60 | 997.5 |
| 20260904120009 | 63 | 223 | 6.1 | 12.2 | 0.00 | 0.24 | 0.00 | 61 | 997.6 |
| 20260904114521 | 63 | 202 | 3.5 | 7.8 | 0.00 | 0.24 | 0.00 | 63 | 997.6 |
| 20260904113010 | 62 | 229 | 3.5 | 9.6 | 0.00 | 0.24 | 0.00 | 64 | 997.8 |
| 20260904111521 | 62 | 238 | 3.5 | 8.7 | 0.00 | 0.24 | 0.00 | 62 | 997.8 |
| 20260904110010 | 61 | 219 | 5.2 | 8.7 | 0.00 | 0.24 | 0.00 | 63 | 997.8 |
| 20260904104510 | 62 | 231 | 4.3 | 7.8 | 0.00 | 0.24 | 0.00 | 63 | 998.0 |
| 20260904103009 | 61 | 220 | 2.6 | 9.6 | 0.00 | 0.24 | 0.00 | 63 | 998.0 |
| 20260904101510 | 60 | 246 | 6.1 | 11.3 | 0.00 | 0.24 | 0.00 | 64 | 998.4 |
| 20260904100010 | 61 | 232 | 6.1 | 9.6 | 0.00 | 0.25 | 0.00 | 63 | 998.6 |
| 20260904094519 | 61 | 288 | 5.2 | 12.2 | 0.00 | 0.25 | 0.00 | 62 | 998.7 |
| 20260904093010 | 61 | 222 | 5.2 | 9.6 | 0.00 | 0.25 | 0.00 | 63 | 998.8 |
| 20260904091509 | 60 | 227 | 4.3 | 7.8 | 0.00 | 0.25 | 0.00 | 66 | 998.9 |
| 20260904090010 | 59 | 240 | 5.2 | 9.6 | 0.00 | 0.26 | 0.00 | 70 | 999.2 |
| 20260904084513 | 58 | 242 | 5.2 | 9.6 | 0.00 | 0.26 | 0.00 | 74 | 999.1 |
| 20260904083017 | 57 | 229 | 3.5 | 6.1 | 0.00 | 0.26 | 0.00 | 76 | 999.1 |
| 20260904081511 | 56 | 230 | 3.5 | 7.8 | 0.00 | 0.26 | 0.00 | 78 | 999.3 |
| 20260904080011 | 55 | 172 | 2.6 | 6.1 | 0.00 | 0.26 | 0.00 | 83 | 999.5 |
| 20260904074509 | 55 | 172 | 2.6 | 4.3 | 0.00 | 0.26 | 0.00 | 82 | 999.5 |
| 20260904073009 | 54 | 172 | 2.6 | 4.3 | 0.00 | 0.26 | 0.00 | 86 | 999.5 |
| 20260904071510 | 53 | 172 | 0.0 | 4.3 | 0.00 | 0.26 | 0.00 | 90 | 999.6 |
| 20260904070009 | 53 | 172 | 3.5 | 5.2 | 0.00 | 0.26 | 0.00 | 91 | 999.7 |
| 20260904064509 | 52 | 173 | 3.5 | 5.2 | 0.00 | 0.26 | 0.00 | 92 | 999.9 |
| 20260904063014 | 52 | 172 | 1.7 | 7.8 | 0.00 | 0.26 | 0.00 | 92 | 1000.0 |
| 20260904061509 | 51 | 160 | 1.7 | 4.3 | 0.00 | 0.26 | 0.00 | 93 | 999.8 |
| 20260904060012 | 50 | 160 | 2.6 | 4.3 | 0.00 | 0.26 | 0.00 | 93 | 1000.2 |
| 20260904054510 | 50 | 159 | 2.6 | 5.2 | 0.00 | 0.26 | 0.00 | 94 | 1000.1 |
| 20260904053011 | 50 | 246 | 0.0 | 3.5 | 0.00 | 0.26 | 0.00 | 93 | 1000.4 |
| 20260904051510 | 50 | 246 | 0.0 | 3.5 | 0.00 | 0.26 | 0.00 | 93 | 1000.7 |
| 20260904050009 | 50 | 246 | 1.7 | 3.5 | 0.00 | 0.26 | 0.00 | 92 | 1000.6 |
| 20260904044511 | 50 | 246 | 1.7 | 2.6 | 0.00 | 0.26 | 0.00 | 90 | 1000.8 |
| 20260904043013 | 51 | 246 | 0.0 | 0.0 | 0.00 | 0.26 | 0.00 | 87 | 1000.7 |
| 20260904041510 | 52 | 249 | 0.0 | 1.7 | 0.00 | 0.26 | 0.00 | 85 | 1000.8 |
| 20260904040009 | 52 | 246 | 0.0 | 4.3 | 0.00 | 0.26 | 0.00 | 86 | 1000.8 |
| 20260904034514 | 52 | 246 | 0.0 | 4.3 | 0.00 | 0.26 | 0.00 | 87 | 1000.9 |
| 20260904033009 | 53 | 244 | 0.0 | 1.7 | 0.00 | 0.26 | 0.00 | 86 | 1001.0 |
| 20260904031510 | 53 | 244 | 0.0 | 3.5 | 0.00 | 0.26 | 0.00 | 85 | 1000.9 |
| 20260904030009 | 53 | 246 | 3.5 | 7.0 | 0.00 | 0.26 | 0.00 | 85 | 1001.2 |
| 20260904024513 | 53 | 242 | 1.7 | 6.1 | 0.00 | 0.26 | 0.00 | 85 | 1001.2 |
| 20260904023011 | 53 | 242 | 0.0 | 7.0 | 0.00 | 0.26 | 0.00 | 85 | 1001.2 |
| 20260904021511 | 54 | 240 | 0.0 | 7.0 | 0.00 | 0.26 | 0.00 | 85 | 1001.3 |
| 20260904020010 | 54 | 240 | 0.0 | 3.5 | 0.00 | 0.26 | 0.00 | 85 | 1001.4 |
| 20260904014510 | 54 | 238 | 4.3 | 8.7 | 0.00 | 0.26 | 0.00 | 85 | 1001.6 |
| 20260904013011 | 54 | 242 | 1.7 | 8.7 | 0.00 | 0.26 | 0.00 | 84 | 1001.6 |
| 20260904011515 | 55 | 250 | 5.2 | 13.0 | 0.00 | 0.26 | 0.00 | 84 | 1001.6 |
| 20260904010011 | 55 | 265 | 4.3 | 8.7 | 0.00 | 0.26 | 0.00 | 85 | 1001.8 |
| 20260904004510 | 55 | 268 | 4.3 | 9.6 | 0.00 | 0.26 | 0.00 | 85 | 1001.7 |
| 20260904003014 | 55 | 294 | 0.9 | 7.8 | 0.00 | 0.26 | 0.00 | 84 | 1001.9 |
| 20260904001514 | 55 | 257 | 2.6 | 8.7 | 0.00 | 0.26 | 0.00 | 86 | 1002.0 |
| 20260904000009 | 55 | 267 | 1.7 | 8.7 | 0.00 | 0.26 | 0.00 | 86 | 1002.2 |
| 20260903234510 | 56 | 245 | 3.5 | 7.0 | 0.00 | 0.26 | 0.00 | 87 | 1001.9 |
| 20260903233009 | 56 | 244 | 2.6 | 9.6 | 0.00 | 0.26 | 0.00 | 88 | 1002.3 |
| 20260903231524 | 56 | 234 | 5.2 | 10.4 | 0.00 | 0.26 | 0.00 | 89 | 1002.6 |
| 20260903230009 | 56 | 242 | 5.2 | 11.3 | 0.00 | 0.26 | 0.00 | 90 | 1002.3 |
| 20260903224527 | 56 | 221 | 2.6 | 6.1 | 0.00 | 0.26 | 0.00 | 91 | 1002.5 |
| 20260903223011 | 56 | 252 | 4.3 | 9.6 | 0.00 | 0.26 | 0.00 | 92 | 1002.3 |
| 20260903221503 | 56 | 265 | 6.1 | 10.4 | 0.00 | 0.26 | 0.00 | 95 | 1002.7 |
| 20260903220009 | 56 | 192 | 2.6 | 6.1 | 0.00 | 0.26 | 0.26 | 96 | 1002.3 |
| 20260903214515 | 56 | 199 | 1.7 | 5.2 | 0.00 | 0.26 | 0.26 | 97 | 1002.7 |